TimeEST,TemperatureF,Dew PointF,Humidity,Sea Level PressureIn,VisibilityMPH,Wind Direction,Wind SpeedMPH,Gust SpeedMPH,PrecipitationIn,Events,Conditions,WindDirDegrees,DateUTC
12:54 AM,44.1,12.9,28,30.04,10.0,WNW,8.1,-,N/A,,Clear,300,2008-02-10 05:54:00
1:54 AM,37.9,16.0,41,30.04,10.0,SW,4.6,-,N/A,,Partly Cloudy,220,2008-02-10 06:54:00
2:54 AM,36.0,17.1,46,30.04,10.0,Calm,Calm,-,N/A,,Partly Cloudy,0,2008-02-10 07:54:00
3:54 AM,44.6,17.6,34,30.04,10.0,West,4.6,19.6,N/A,,Clear,280,2008-02-10 08:54:00
4:54 AM,44.1,12.9,28,30.02,10.0,WNW,8.1,-,N/A,,Clear,300,2008-02-10 09:54:00
5:54 AM,42.1,12.0,29,30.04,10.0,NW,9.2,-,N/A,,Clear,320,2008-02-10 10:54:00
6:54 AM,42.8,10.4,27,30.07,10.0,NW,9.2,19.6,N/A,,Clear,310,2008-02-10 11:54:00
7:54 AM,44.1,12.0,27,30.08,10.0,North,13.8,18.4,N/A,,Clear,350,2008-02-10 12:54:00
8:54 AM,45.0,16.0,31,30.08,10.0,NNE,8.1,-,N/A,,Clear,20,2008-02-10 13:54:00
9:54 AM,48.0,17.1,29,30.08,10.0,NNE,12.7,17.3,N/A,,Clear,20,2008-02-10 14:54:00
10:54 AM,52.0,17.1,25,30.09,10.0,North,16.1,34.5,N/A,,Partly Cloudy,350,2008-02-10 15:54:00
11:54 AM,51.8,17.6,26,30.09,10.0,NW,27.6,40.3,N/A,,Scattered Clouds,310,2008-02-10 16:54:00
12:54 PM,55.0,21.0,27,30.05,10.0,NNW,21.9,34.5,N/A,,Mostly Cloudy,330,2008-02-10 17:54:00
1:54 PM,54.0,21.9,29,30.06,10.0,NNW,25.3,36.8,N/A,,Scattered Clouds,330,2008-02-10 18:54:00
2:54 PM,53.6,21.2,28,30.07,10.0,WNW,18.4,32.2,N/A,,Partly Cloudy,300,2008-02-10 19:54:00
3:54 PM,54.0,21.9,29,30.07,10.0,NW,18.4,36.8,N/A,,Scattered Clouds,320,2008-02-10 20:54:00
4:54 PM,52.0,21.9,31,30.08,10.0,NW,16.1,40.3,N/A,,Scattered Clouds,320,2008-02-10 21:54:00
5:54 PM,48.9,21.0,33,30.10,10.0,NW,18.4,35.7,N/A,,Clear,320,2008-02-10 22:54:00
6:54 PM,46.9,21.0,36,30.12,10.0,NNW,12.7,21.9,N/A,,Clear,330,2008-02-10 23:54:00
7:54 PM,39.9,23.0,51,30.15,10.0,North,17.3,24.2,N/A,,Clear,350,2008-02-11 00:54:00
8:54 PM,35.1,19.0,52,30.17,10.0,NNW,15.0,24.2,N/A,,Clear,340,2008-02-11 01:54:00
9:54 PM,33.1,17.1,52,30.17,10.0,North,10.4,-,N/A,,Clear,10,2008-02-11 02:54:00
10:54 PM,30.9,12.0,46,30.19,10.0,NNW,18.4,23.0,N/A,,Clear,330,2008-02-11 03:54:00
11:54 PM,28.9,10.0,45,30.21,10.0,NNW,16.1,26.5,N/A,,Clear,340,2008-02-11 04:54:00